Hourly Weather Bolshie Malosheviny

Today, 20 June, Sunday

Time Temperature Precipitation Wind Pressure Humidity
00:00 +19°C° 0 mm 1 mps 752 mmHg 80%
01:00 +19°C° 0 mm 1 mps 752 mmHg 82%
02:00 +18°C° 0 mm 1 mps 752 mmHg 84%
03:00 +19°C° 0 mm 1 mps 752 mmHg 82%
04:00 +20°C° 0 mm 1 mps 752 mmHg 80%
05:00 +21°C° 0 mm 1 mps 752 mmHg 78%
06:00 +23°C° 0 mm 1 mps 752 mmHg 70%
07:00 +25°C° 0 mm 1 mps 752 mmHg 62%
08:00 +27°C° 0 mm 2 mps 752 mmHg 54%
09:00 +28°C° 0 mm 2 mps 751 mmHg 49%
10:00 +29°C° 0 mm 2 mps 751 mmHg 44%
11:00 +31°C° 0 mm 2 mps 751 mmHg 39%
12:00 +31°C° 0 mm 2 mps 751 mmHg 37%
13:00 +33°C° 0 mm 3 mps 751 mmHg 35%
14:00 +33°C° 0 mm 3 mps 750 mmHg 33%
15:00 +32°C° 0 mm 2 mps 750 mmHg 36%
16:00 +32°C° 0 mm 2 mps 750 mmHg 39%
17:00 +32°C° 0 mm 2 mps 750 mmHg 42%
18:00 +30°C° 0 mm 1 mps 750 mmHg 51%
19:00 +28°C° 0 mm 1 mps 750 mmHg 59%
20:00 +26°C° 0 mm 1 mps 749 mmHg 68%
21:00 +25°C° 0 mm 1 mps 750 mmHg 69%
22:00 +25°C° 0 mm 1 mps 750 mmHg 70%
23:00 +24°C° 0 mm 1 mps 750 mmHg 70%

Tomorrow, 21 June, Monday

Time Temperature Precipitation Wind Pressure Humidity
00:00 +24°C° 0 mm 1 mps 750 mmHg 73%
01:00 +23°C° 0 mm 1 mps 750 mmHg 75%
02:00 +23°C° 0 mm 1 mps 750 mmHg 78%
03:00 +23°C° 0 mm 1 mps 750 mmHg 78%
04:00 +23°C° 0 mm 1 mps 750 mmHg 79%
05:00 +24°C° 0 mm 1 mps 750 mmHg 79%
06:00 +25°C° 0 mm 1 mps 750 mmHg 72%
07:00 +27°C° 0 mm 1 mps 751 mmHg 65%
08:00 +29°C° 0 mm 1 mps 751 mmHg 58%
09:00 +30°C° 0 mm 1 mps 751 mmHg 53%
10:00 +31°C° 0 mm 1 mps 751 mmHg 48%
11:00 +32°C° 0 mm 2 mps 750 mmHg 42%
12:00 +34°C° 0 mm 2 mps 750 mmHg 41%
13:00 +34°C° 0 mm 2 mps 750 mmHg 39%
14:00 +34°C° 0 mm 2 mps 750 mmHg 38%
15:00 +30°C° 1.6 mm 3 mps 750 mmHg 52%
16:00 +27°C° 1.6 mm 3 mps 750 mmHg 66%
17:00 +23°C° 1.6 mm 4 mps 750 mmHg 80%
18:00 +22°C° 2.4 mm 3 mps 750 mmHg 84%
19:00 +21°C° 2.4 mm 2 mps 750 mmHg 88%
20:00 +20°C° 2.4 mm 1 mps 751 mmHg 91%
21:00 +20°C° 0.1 mm 1 mps 750 mmHg 91%
22:00 +19°C° 0.1 mm 2 mps 750 mmHg 91%
23:00 +19°C° 0.1 mm 2 mps 750 mmHg 91%

Day after tomorrow, 22 June, Tuesday

Time Temperature Precipitation Wind Pressure Humidity
00:00 +19°C° 0 mm 2 mps 750 mmHg 92%
01:00 +19°C° 0 mm 2 mps 750 mmHg 93%
02:00 +19°C° 0 mm 1 mps 750 mmHg 94%
03:00 +20°C° 0 mm 1 mps 751 mmHg 92%
04:00 +20°C° 0 mm 1 mps 751 mmHg 90%
05:00 +21°C° 0 mm 1 mps 751 mmHg 89%
06:00 +23°C° 0 mm 1 mps 751 mmHg 79%
07:00 +25°C° 0 mm 2 mps 751 mmHg 70%
08:00 +27°C° 0 mm 2 mps 751 mmHg 60%
09:00 +29°C° 0 mm 2 mps 751 mmHg 54%
10:00 +30°C° 0 mm 2 mps 751 mmHg 48%
11:00 +33°C° 0 mm 3 mps 751 mmHg 41%
12:00 +33°C° 0 mm 3 mps 750 mmHg 39%
13:00 +34°C° 0 mm 3 mps 750 mmHg 37%
14:00 +35°C° 0 mm 3 mps 750 mmHg 35%
15:00 +35°C° 0 mm 3 mps 750 mmHg 37%
16:00 +34°C° 0 mm 3 mps 750 mmHg 39%
17:00 +34°C° 0 mm 3 mps 749 mmHg 42%
18:00 +30°C° 0 mm 3 mps 749 mmHg 51%
19:00 +28°C° 0 mm 2 mps 750 mmHg 61%
20:00 +25°C° 0 mm 2 mps 750 mmHg 70%
21:00 +24°C° 0 mm 2 mps 750 mmHg 72%
22:00 +23°C° 0 mm 2 mps 750 mmHg 74%
23:00 +23°C° 0 mm 2 mps 750 mmHg 75%

23 June, Wednesday

Time Temperature Precipitation Wind Pressure Humidity
00:00 +21°C° 0 mm 2 mps 750 mmHg 78%
01:00 +21°C° 0 mm 2 mps 750 mmHg 80%
02:00 +20°C° 0 mm 2 mps 750 mmHg 83%
03:00 +21°C° 0 mm 2 mps 750 mmHg 83%
04:00 +21°C° 0 mm 2 mps 750 mmHg 83%
05:00 +23°C° 0 mm 2 mps 751 mmHg 83%
06:00 +25°C° 0 mm 2 mps 751 mmHg 75%
07:00 +27°C° 0 mm 2 mps 751 mmHg 67%
08:00 +29°C° 0 mm 2 mps 751 mmHg 59%
09:00 +31°C° 0 mm 2 mps 751 mmHg 52%
10:00 +33°C° 0 mm 3 mps 751 mmHg 45%
11:00 +35°C° 0 mm 3 mps 751 mmHg 38%
12:00 +35°C° 0 mm 3 mps 751 mmHg 34%
13:00 +36°C° 0 mm 3 mps 750 mmHg 31%
14:00 +37°C° 0 mm 3 mps 750 mmHg 28%
15:00 +36°C° 0 mm 3 mps 750 mmHg 31%
16:00 +35°C° 0 mm 3 mps 750 mmHg 34%
17:00 +35°C° 0 mm 3 mps 750 mmHg 37%
18:00 +33°C° 0 mm 3 mps 750 mmHg 48%
19:00 +29°C° 0 mm 3 mps 750 mmHg 58%
20:00 +27°C° 0 mm 2 mps 750 mmHg 68%
21:00 +26°C° 0 mm 2 mps 750 mmHg 72%
22:00 +25°C° 0 mm 2 mps 750 mmHg 76%
23:00 +24°C° 0 mm 2 mps 750 mmHg 80%

24 June, Thursday

Time Temperature Precipitation Wind Pressure Humidity
00:00 +24°C° 0 mm 2 mps 750 mmHg 81%
01:00 +23°C° 0 mm 2 mps 750 mmHg 81%
02:00 +23°C° 0 mm 2 mps 750 mmHg 82%
03:00 +23°C° 0 mm 2 mps 750 mmHg 81%
04:00 +24°C° 0 mm 1 mps 750 mmHg 80%
05:00 +24°C° 0 mm 1 mps 750 mmHg 79%
06:00 +26°C° 0 mm 2 mps 750 mmHg 70%
07:00 +28°C° 0 mm 2 mps 750 mmHg 61%
08:00 +30°C° 0 mm 2 mps 750 mmHg 53%
09:00 +33°C° 0 mm 3 mps 749 mmHg 47%
10:00 +34°C° 0 mm 3 mps 749 mmHg 41%
11:00 +35°C° 0 mm 4 mps 749 mmHg 36%
12:00 +36°C° 0 mm 3 mps 749 mmHg 34%
13:00 +36°C° 0 mm 3 mps 749 mmHg 31%
14:00 +37°C° 0 mm 3 mps 748 mmHg 29%
15:00 +36°C° 0 mm 3 mps 748 mmHg 31%
16:00 +36°C° 0 mm 3 mps 747 mmHg 34%
17:00 +35°C° 0 mm 3 mps 746 mmHg 36%
18:00 +33°C° 0 mm 3 mps 746 mmHg 44%
19:00 +30°C° 0 mm 4 mps 747 mmHg 51%
20:00 +28°C° 0 mm 4 mps 747 mmHg 59%
21:00 +25°C° 0.1 mm 3 mps 747 mmHg 71%
22:00 +23°C° 0.1 mm 2 mps 747 mmHg 83%
23:00 +21°C° 0.1 mm 1 mps 747 mmHg 95%

25 June, Friday

Time Temperature Precipitation Wind Pressure Humidity
00:00 +20°C° 0 mm 1 mps 747 mmHg 96%
01:00 +20°C° 0 mm 1 mps 747 mmHg 96%
02:00 +19°C° 0 mm 2 mps 746 mmHg 96%
03:00 +20°C° 0 mm 2 mps 747 mmHg 93%
04:00 +20°C° 0 mm 2 mps 747 mmHg 91%
05:00 +22°C° 0 mm 1 mps 747 mmHg 88%
06:00 +24°C° 0 mm 1 mps 747 mmHg 80%
07:00 +26°C° 0 mm 2 mps 747 mmHg 73%
08:00 +27°C° 0 mm 2 mps 746 mmHg 65%
09:00 +29°C° 0 mm 2 mps 746 mmHg 59%
10:00 +30°C° 0 mm 2 mps 746 mmHg 54%
11:00 +32°C° 0 mm 2 mps 746 mmHg 48%
12:00 +32°C° 0 mm 2 mps 746 mmHg 46%
13:00 +34°C° 0 mm 2 mps 746 mmHg 44%
14:00 +34°C° 0 mm 2 mps 745 mmHg 42%
15:00 +30°C° 2.2 mm 3 mps 745 mmHg 56%
16:00 +26°C° 2.2 mm 4 mps 745 mmHg 70%
17:00 +21°C° 2.2 mm 5 mps 745 mmHg 85%
18:00 +21°C° 1.3 mm 4 mps 745 mmHg 88%
19:00 +20°C° 1.3 mm 3 mps 745 mmHg 92%
20:00 +20°C° 1.3 mm 2 mps 746 mmHg 96%
21:00 +20°C° 0.1 mm 2 mps 745 mmHg 95%
22:00 +19°C° 0.1 mm 2 mps 745 mmHg 95%
23:00 +19°C° 0.1 mm 2 mps 744 mmHg 95%
Show more